TimeEDT,TemperatureF,Dew PointF,Humidity,Sea Level PressureIn,VisibilityMPH,Wind Direction,Wind SpeedMPH,Gust SpeedMPH,PrecipitationIn,Events,Conditions,WindDirDegrees,DateUTC
12:34 AM,65.1,64.9,99,29.95,7.0,SSE,4.6,-,N/A,,Clear,150,2013-10-04 04:34:00
12:55 AM,68.5,67.1,95,29.95,10.0,South,6.9,-,N/A,,Clear,190,2013-10-04 04:55:00
1:14 AM,68.5,65.8,91,29.95,10.0,SSW,5.8,-,N/A,,Mostly Cloudy,210,2013-10-04 05:14:00
1:35 AM,68.4,65.3,90,29.95,10.0,SW,4.6,-,N/A,,Mostly Cloudy,220,2013-10-04 05:35:00
1:55 AM,68.4,64.9,89,29.96,10.0,SW,5.8,-,N/A,,Scattered Clouds,230,2013-10-04 05:55:00
2:14 AM,68.5,64.8,88,29.96,10.0,SW,6.9,-,N/A,,Mostly Cloudy,220,2013-10-04 06:14:00
2:35 AM,68.2,64.8,89,29.97,7.0,SW,9.2,-,N/A,Rain,Rain,220,2013-10-04 06:35:00
2:55 AM,67.8,65.5,92,29.96,10.0,Calm,Calm,-,N/A,,Overcast,0,2013-10-04 06:55:00
3:14 AM,67.8,65.7,93,29.95,10.0,SSW,3.5,-,N/A,,Mostly Cloudy,200,2013-10-04 07:14:00
3:35 AM,68.2,64.9,89,29.96,10.0,SW,4.6,-,N/A,,Scattered Clouds,220,2013-10-04 07:35:00
3:55 AM,68.0,65.1,90,29.97,10.0,West,4.6,-,N/A,Rain,Light Rain,270,2013-10-04 07:55:00
4:14 AM,67.3,65.3,93,29.96,10.0,Calm,Calm,-,N/A,,Mostly Cloudy,0,2013-10-04 08:14:00
4:35 AM,66.2,64.4,94,29.96,10.0,Calm,Calm,-,N/A,,Mostly Cloudy,0,2013-10-04 08:35:00
4:54 AM,65.7,64.6,96,29.96,7.0,Calm,Calm,-,N/A,,Mostly Cloudy,0,2013-10-04 08:54:00
5:14 AM,64.8,64.4,99,29.96,3.0,SE,3.5,-,N/A,,Scattered Clouds,140,2013-10-04 09:14:00
5:35 AM,65.7,65.3,99,29.96,7.0,SSW,3.5,-,N/A,,Mostly Cloudy,210,2013-10-04 09:35:00
5:54 AM,66.9,65.5,95,29.97,10.0,SSW,4.6,-,N/A,,Scattered Clouds,210,2013-10-04 09:54:00
6:14 AM,67.1,65.5,95,29.97,10.0,SW,5.8,-,N/A,,Clear,220,2013-10-04 10:14:00
6:35 AM,67.1,65.3,94,29.97,10.0,SW,5.8,-,N/A,,Scattered Clouds,220,2013-10-04 10:35:00
6:54 AM,66.6,65.1,95,29.98,7.0,SW,5.8,-,N/A,,Scattered Clouds,230,2013-10-04 10:54:00
7:15 AM,66.6,65.1,95,29.98,7.0,WSW,5.8,-,N/A,,Clear,240,2013-10-04 11:15:00
7:35 AM,66.7,65.3,95,29.99,7.0,SW,6.9,-,N/A,,Mostly Cloudy,230,2013-10-04 11:35:00
7:54 AM,66.6,64.8,94,30.00,7.0,SW,6.9,-,N/A,,Mostly Cloudy,230,2013-10-04 11:54:00
8:15 AM,66.4,64.8,95,30.01,7.0,SW,6.9,-,N/A,,Scattered Clouds,230,2013-10-04 12:15:00
8:35 AM,67.1,65.5,95,30.01,7.0,SW,6.9,-,N/A,,Scattered Clouds,230,2013-10-04 12:35:00
8:54 AM,68.2,66.0,93,30.01,10.0,SW,6.9,-,N/A,,Mostly Cloudy,230,2013-10-04 12:54:00
9:15 AM,68.2,65.5,91,30.01,10.0,SW,6.9,-,N/A,,Scattered Clouds,230,2013-10-04 13:15:00
9:35 AM,68.4,65.5,90,30.01,10.0,WSW,6.9,-,N/A,,Scattered Clouds,240,2013-10-04 13:35:00
9:54 AM,68.4,65.5,90,30.02,10.0,SW,5.8,-,N/A,,Mostly Cloudy,230,2013-10-04 13:54:00
10:15 AM,68.2,65.3,90,30.03,10.0,WSW,9.2,-,N/A,,Overcast,240,2013-10-04 14:15:00
10:35 AM,68.2,65.8,92,30.02,10.0,WSW,5.8,-,N/A,Rain,Light Rain,250,2013-10-04 14:35:00
10:54 AM,68.7,66.0,91,30.03,10.0,WSW,6.9,-,N/A,,Overcast,240,2013-10-04 14:54:00
11:15 AM,68.9,66.0,90,30.03,10.0,WSW,6.9,-,N/A,,Overcast,240,2013-10-04 15:15:00
11:34 AM,70.0,66.2,88,30.02,10.0,WSW,4.6,-,N/A,,Overcast,240,2013-10-04 15:34:00
11:54 AM,72.5,66.9,83,30.02,10.0,West,5.8,-,N/A,,Overcast,260,2013-10-04 15:54:00
12:14 PM,75.2,66.9,75,30.02,10.0,WSW,5.8,-,N/A,,Scattered Clouds,250,2013-10-04 16:14:00
12:34 PM,75.0,66.4,74,30.03,10.0,West,8.1,-,N/A,,Mostly Cloudy,270,2013-10-04 16:34:00
12:55 PM,75.6,66.7,74,30.03,7.0,WNW,6.9,-,N/A,,Overcast,290,2013-10-04 16:55:00
1:14 PM,76.1,66.7,73,30.03,10.0,WNW,6.9,-,N/A,,Overcast,290,2013-10-04 17:14:00
1:34 PM,75.6,66.7,74,30.02,10.0,WNW,5.8,-,N/A,,Overcast,290,2013-10-04 17:34:00
1:55 PM,75.6,66.4,73,30.02,10.0,West,5.8,-,N/A,,Overcast,280,2013-10-04 17:55:00
2:14 PM,75.2,66.6,74,30.02,10.0,West,8.1,-,N/A,,Overcast,270,2013-10-04 18:14:00
2:34 PM,74.8,66.4,75,30.02,10.0,WSW,6.9,-,N/A,,Overcast,250,2013-10-04 18:34:00
2:55 PM,75.2,66.7,75,30.01,7.0,West,3.5,-,N/A,,Overcast,270,2013-10-04 18:55:00
3:14 PM,74.8,66.9,76,30.01,10.0,Calm,Calm,-,N/A,,Mostly Cloudy,0,2013-10-04 19:14:00
3:34 PM,74.8,67.1,77,30.00,7.0,SSE,5.8,-,N/A,,Overcast,160,2013-10-04 19:34:00
3:55 PM,74.8,67.3,77,30.00,10.0,South,5.8,-,N/A,,Overcast,170,2013-10-04 19:55:00
4:14 PM,75.2,67.8,78,30.00,10.0,SSE,3.5,-,N/A,,Overcast,150,2013-10-04 20:14:00
4:34 PM,75.6,67.8,77,30.01,7.0,Calm,Calm,-,N/A,,Mostly Cloudy,0,2013-10-04 20:34:00
4:55 PM,77.2,67.6,72,30.01,10.0,SSW,6.9,-,N/A,,Scattered Clouds,210,2013-10-04 20:55:00
5:14 PM,76.8,67.8,74,30.01,10.0,SW,5.8,-,N/A,,Clear,230,2013-10-04 21:14:00
5:34 PM,76.6,67.8,74,30.01,10.0,South,4.6,-,N/A,,Clear,180,2013-10-04 21:34:00
5:55 PM,76.1,68.0,76,30.01,10.0,SSE,3.5,-,N/A,,Clear,160,2013-10-04 21:55:00
6:14 PM,76.1,68.0,76,30.00,10.0,Calm,Calm,-,N/A,,Clear,0,2013-10-04 22:14:00
6:34 PM,74.5,67.8,80,30.00,10.0,SE,3.5,-,N/A,,Clear,140,2013-10-04 22:34:00
6:55 PM,74.3,68.0,81,30.01,10.0,Calm,Calm,-,N/A,,Scattered Clouds,0,2013-10-04 22:55:00
7:14 PM,74.3,68.0,81,30.02,4.0,Calm,Calm,-,N/A,,Haze,0,2013-10-04 23:14:00
7:34 PM,72.1,67.6,86,30.02,7.0,Calm,Calm,-,N/A,,Mostly Cloudy,0,2013-10-04 23:34:00
7:55 PM,70.0,68.0,93,30.01,7.0,Calm,Calm,-,N/A,,Mostly Cloudy,0,2013-10-04 23:55:00
8:14 PM,70.3,68.2,93,30.02,7.0,Calm,Calm,-,N/A,,Mostly Cloudy,0,2013-10-05 00:14:00
8:35 PM,71.6,68.4,89,30.03,10.0,Calm,Calm,-,N/A,,Mostly Cloudy,0,2013-10-05 00:35:00
8:55 PM,71.6,68.4,89,30.02,5.0,SSE,6.9,18.4,N/A,Rain,Rain,160,2013-10-05 00:55:00
9:14 PM,70.0,68.0,93,30.02,10.0,South,3.5,-,N/A,,Mostly Cloudy,180,2013-10-05 01:14:00
9:35 PM,69.1,67.1,93,30.03,10.0,Calm,Calm,-,N/A,,Clear,0,2013-10-05 01:35:00
9:55 PM,68.4,67.1,96,30.03,10.0,Calm,Calm,-,N/A,,Scattered Clouds,0,2013-10-05 01:55:00
10:14 PM,68.0,67.1,97,30.03,7.0,North,5.8,-,N/A,,Clear,360,2013-10-05 02:14:00
10:35 PM,68.7,68.0,98,30.03,7.0,Calm,Calm,-,N/A,,Scattered Clouds,0,2013-10-05 02:35:00
10:55 PM,68.0,67.3,98,30.03,5.0,SSE,5.8,-,N/A,,Scattered Clouds,160,2013-10-05 02:55:00
11:14 PM,68.0,67.3,98,30.03,4.0,NNW,3.5,-,N/A,,Clear,330,2013-10-05 03:14:00
11:35 PM,68.5,68.2,99,30.05,5.0,Calm,Calm,-,N/A,,Mostly Cloudy,0,2013-10-05 03:35:00
11:55 PM,68.2,67.6,98,30.05,5.0,Calm,Calm,-,N/A,,Mostly Cloudy,0,2013-10-05 03:55:00